Terug naar catalogus

COSMOS 1275 DEB

ActiefPO
NORAD 29295·DEBRIS·🇷🇺 Russia

Gelanceerd Jun 4, 1981 vanaf Plesetsk Cosmodrome

Loading…

Volgende Passages (komende 24 uur)

TLE

VersSource: Space-Track

Epoch: Sep 11, 2026, 06:25 UTC

1 29295U 81053MS  26254.26802407  .00000624  00000-0  60214-3 0  9990
2 29295  82.9551  79.6800 0110520  12.6641 108.2043 13.75838928703897

Volg COSMOS 1275 DEB in realtime met AllMySat

Download on the App Store